| time (UTC) | temp F | wind direction | speed MPH | gust MPH | rain 1hr in | rain 24hr in | rain mn in | humidity % | barometer mb |
| 20260507192640 | 54 | 37 | 5.0 | 8.0 | 0.00 | 0.00 | 0.00 | 78 | 1021.3 |
| 20260507192140 | 55 | 88 | 2.0 | 6.0 | 0.00 | 0.00 | 0.00 | 77 | 1021.3 |
| 20260507191640 | 54 | 22 | 3.0 | 6.0 | 0.00 | 0.00 | 0.00 | 78 | 1021.3 |
| 20260507191140 | 54 | 87 | 1.0 | 6.0 | 0.00 | 0.00 | 0.00 | 77 | 1021.4 |
| 20260507190640 | 54 | 62 | 2.0 | 7.0 | 0.00 | 0.00 | 0.00 | 78 | 1021.4 |
| 20260507190140 | 54 | 22 | 2.0 | 7.0 | 0.00 | 0.00 | 0.00 | 79 | 1021.4 |
| 20260507185640 | 53 | 27 | 4.0 | 7.0 | 0.00 | 0.00 | 0.00 | 78 | 1021.4 |
| 20260507185140 | 54 | 20 | 5.0 | 9.0 | 0.00 | 0.00 | 0.00 | 78 | 1021.4 |
| 20260507184639 | 53 | 65 | 3.0 | 9.0 | 0.00 | 0.00 | 0.00 | 79 | 1021.5 |
| 20260507184139 | 54 | 66 | 2.0 | 7.0 | 0.00 | 0.00 | 0.00 | 78 | 1021.5 |
| 20260507183639 | 54 | 63 | 4.0 | 7.0 | 0.00 | 0.00 | 0.00 | 77 | 1021.5 |
| 20260507182639 | 54 | 11 | 1.0 | 4.0 | 0.00 | 0.00 | 0.00 | 78 | 1021.6 |
| 20260507182139 | 53 | 221 | 0.0 | 7.0 | 0.00 | 0.00 | 0.00 | 80 | 1021.6 |
| 20260507181639 | 53 | 51 | 3.0 | 7.0 | 0.00 | 0.00 | 0.00 | 79 | 1021.7 |
| 20260507181139 | 53 | 84 | 4.0 | 6.0 | 0.00 | 0.00 | 0.00 | 79 | 1021.7 |
| 20260507180638 | 53 | 40 | 2.0 | 6.0 | 0.00 | 0.00 | 0.00 | 78 | 1021.7 |
| 20260507175638 | 53 | 58 | 4.0 | 6.0 | 0.00 | 0.00 | 0.00 | 79 | 1021.7 |
| 20260507175138 | 53 | 41 | 3.0 | 5.0 | 0.00 | 0.00 | 0.00 | 78 | 1021.7 |
| 20260507174639 | 54 | 17 | 2.0 | 7.0 | 0.00 | 0.00 | 0.00 | 78 | 1021.7 |
| 20260507173638 | 54 | 11 | 4.0 | 6.0 | 0.00 | 0.00 | 0.00 | 76 | 1021.7 |
| 20260507173138 | 54 | 360 | 3.0 | 9.0 | 0.00 | 0.00 | 0.00 | 78 | 1021.7 |
| 20260507172638 | 53 | 321 | 3.0 | 9.0 | 0.00 | 0.00 | 0.00 | 77 | 1021.7 |
| 20260507172138 | 53 | 337 | 4.0 | 8.0 | 0.00 | 0.00 | 0.00 | 77 | 1021.6 |
| 20260507171638 | 53 | 23 | 3.0 | 10.0 | 0.00 | 0.00 | 0.00 | 77 | 1021.6 |
| 20260507171138 | 54 | 45 | 7.0 | 10.0 | 0.00 | 0.00 | 0.00 | 76 | 1021.6 |
| 20260507170637 | 54 | 321 | 1.0 | 5.0 | 0.00 | 0.00 | 0.00 | 78 | 1021.6 |
| 20260507165638 | 53 | 61 | 0.0 | 6.0 | 0.00 | 0.01 | 0.00 | 79 | 1021.5 |
| 20260507165207 | 53 | 7 | 2.0 | 6.0 | 0.00 | 0.01 | 0.00 | 79 | 1021.6 |
| 20260507164707 | 53 | 261 | 4.0 | 5.0 | 0.00 | 0.01 | 0.00 | 78 | 1021.6 |
| 20260507164207 | 53 | 311 | 0.0 | 5.0 | 0.00 | 0.01 | 0.00 | 80 | 1021.6 |
| 20260507163707 | 53 | 35 | 2.0 | 5.0 | 0.00 | 0.01 | 0.00 | 80 | 1021.6 |
| 20260507163137 | 52 | 41 | 1.0 | 3.0 | 0.00 | 0.01 | 0.00 | 81 | 1021.7 |
| 20260507162137 | 52 | 324 | 2.0 | 4.0 | 0.00 | 0.01 | 0.00 | 82 | 1021.6 |
| 20260507161707 | 52 | 311 | 1.0 | 4.0 | 0.00 | 0.01 | 0.00 | 81 | 1021.7 |
| 20260507160637 | 51 | 320 | 0.0 | 5.0 | 0.00 | 0.01 | 0.00 | 82 | 1021.6 |
| 20260507160207 | 51 | 285 | 2.0 | 6.0 | 0.00 | 0.01 | 0.00 | 82 | 1021.7 |
| 20260507155136 | 51 | 308 | 4.0 | 4.0 | 0.00 | 0.01 | 0.00 | 83 | 1021.8 |
| 20260507154637 | 50 | 278 | 3.0 | 6.0 | 0.00 | 0.01 | 0.00 | 82 | 1021.8 |
| 20260507154136 | 50 | 289 | 4.0 | 6.0 | 0.00 | 0.01 | 0.00 | 82 | 1021.8 |
| 20260507153707 | 50 | 304 | 4.0 | 4.0 | 0.00 | 0.01 | 0.00 | 83 | 1021.9 |
| 20260507153136 | 50 | 260 | 0.0 | 5.0 | 0.00 | 0.01 | 0.00 | 83 | 1021.9 |
| 20260507152706 | 50 | 291 | 2.0 | 5.0 | 0.00 | 0.01 | 0.00 | 83 | 1021.9 |
| 20260507151636 | 50 | 240 | 1.0 | 6.0 | 0.00 | 0.01 | 0.00 | 83 | 1021.9 |
| 20260507151136 | 50 | 286 | 3.0 | 6.0 | 0.00 | 0.01 | 0.00 | 83 | 1021.8 |
| 20260507150706 | 50 | 259 | 2.0 | 5.0 | 0.00 | 0.01 | 0.00 | 82 | 1021.8 |
| 20260507150206 | 50 | 270 | 3.0 | 5.0 | 0.00 | 0.01 | 0.00 | 82 | 1021.8 |
| 20260507145706 | 50 | 297 | 2.0 | 5.0 | 0.00 | 0.01 | 0.00 | 82 | 1021.8 |
| 20260507145135 | 51 | 298 | 2.0 | 4.0 | 0.00 | 0.01 | 0.00 | 82 | 1021.7 |
| 20260507144635 | 51 | 268 | 0.0 | 3.0 | 0.00 | 0.01 | 0.00 | 82 | 1021.7 |
| 20260507144136 | 50 | 277 | 2.0 | 5.0 | 0.00 | 0.01 | 0.00 | 82 | 1021.7 |
| 20260507143705 | 50 | 260 | 1.0 | 5.0 | 0.00 | 0.01 | 0.00 | 83 | 1021.6 |
| 20260507143135 | 50 | 314 | 5.0 | 6.0 | 0.00 | 0.01 | 0.00 | 84 | 1021.6 |
| 20260507142705 | 50 | 288 | 2.0 | 6.0 | 0.00 | 0.01 | 0.00 | 84 | 1021.6 |
| 20260507142205 | 49 | 281 | 2.0 | 4.0 | 0.00 | 0.01 | 0.00 | 84 | 1021.6 |
| 20260507141705 | 49 | 337 | 4.0 | 5.0 | 0.00 | 0.01 | 0.00 | 84 | 1021.5 |
| 20260507141135 | 49 | 300 | 3.0 | 5.0 | 0.00 | 0.01 | 0.00 | 84 | 1021.5 |
| 20260507135705 | 49 | 253 | 3.0 | 7.0 | 0.00 | 0.01 | 0.00 | 85 | 1021.4 |
| 20260507135204 | 49 | 269 | 2.0 | 7.0 | 0.00 | 0.01 | 0.00 | 85 | 1021.4 |
| 20260507134704 | 49 | 273 | 2.0 | 5.0 | 0.00 | 0.01 | 0.00 | 85 | 1021.4 |
| 20260507134204 | 49 | 259 | 2.0 | 7.0 | 0.00 | 0.01 | 0.00 | 85 | 1021.5 |
| 20260507133704 | 49 | 276 | 2.0 | 7.0 | 0.00 | 0.01 | 0.00 | 85 | 1021.4 |
| 20260507133204 | 49 | 279 | 3.0 | 7.0 | 0.00 | 0.01 | 0.00 | 86 | 1021.5 |
| 20260507132704 | 48 | 280 | 3.0 | 6.0 | 0.00 | 0.01 | 0.00 | 86 | 1021.5 |
| 20260507132203 | 48 | 281 | 3.0 | 5.0 | 0.00 | 0.01 | 0.00 | 86 | 1021.5 |
| 20260507131204 | 48 | 287 | 3.0 | 4.0 | 0.00 | 0.01 | 0.00 | 87 | 1021.6 |
| 20260507130704 | 48 | 286 | 3.0 | 5.0 | 0.00 | 0.01 | 0.00 | 87 | 1021.5 |
| 20260507130203 | 48 | 265 | 1.0 | 5.0 | 0.00 | 0.01 | 0.00 | 87 | 1021.5 |
| 20260507125703 | 48 | 281 | 2.0 | 5.0 | 0.00 | 0.01 | 0.00 | 87 | 1021.5 |
| 20260507125203 | 48 | 265 | 2.0 | 6.0 | 0.00 | 0.01 | 0.00 | 87 | 1021.5 |
| 20260507124704 | 48 | 286 | 5.0 | 6.0 | 0.00 | 0.01 | 0.00 | 87 | 1021.6 |
| 20260507124203 | 49 | 258 | 2.0 | 6.0 | 0.00 | 0.01 | 0.00 | 87 | 1021.6 |
| 20260507123703 | 49 | 298 | 0.0 | 8.0 | 0.00 | 0.01 | 0.00 | 87 | 1021.6 |
| 20260507123203 | 49 | 245 | 2.0 | 8.0 | 0.00 | 0.01 | 0.00 | 87 | 1021.6 |
| 20260507122203 | 49 | 292 | 3.0 | 10.0 | 0.00 | 0.01 | 0.00 | 86 | 1021.7 |
| 20260507121702 | 49 | 294 | 3.0 | 6.0 | 0.00 | 0.01 | 0.00 | 86 | 1021.7 |
| 20260507121203 | 49 | 265 | 2.0 | 6.0 | 0.00 | 0.01 | 0.00 | 86 | 1021.8 |
| 20260507120703 | 49 | 233 | 1.0 | 7.0 | 0.00 | 0.01 | 0.00 | 86 | 1021.7 |
| 20260507120202 | 49 | 263 | 1.0 | 7.0 | 0.00 | 0.01 | 0.00 | 86 | 1021.8 |
| 20260507115702 | 49 | 288 | 5.0 | 7.0 | 0.00 | 0.01 | 0.00 | 86 | 1021.8 |
| 20260507115202 | 49 | 282 | 3.0 | 5.0 | 0.00 | 0.01 | 0.00 | 86 | 1021.9 |
| 20260507114702 | 49 | 266 | 2.0 | 7.0 | 0.00 | 0.01 | 0.00 | 86 | 1021.8 |
| 20260507114202 | 49 | 274 | 1.0 | 7.0 | 0.00 | 0.01 | 0.00 | 87 | 1021.8 |
| 20260507113702 | 49 | 254 | 6.0 | 7.0 | 0.00 | 0.01 | 0.00 | 87 | 1021.8 |
| 20260507113202 | 49 | 236 | 0.0 | 7.0 | 0.00 | 0.01 | 0.00 | 87 | 1021.8 |
| 20260507112702 | 49 | 335 | 2.0 | 7.0 | 0.00 | 0.01 | 0.00 | 87 | 1021.8 |
| 20260507112202 | 49 | 284 | 3.0 | 7.0 | 0.00 | 0.01 | 0.00 | 87 | 1021.7 |
| 20260507111702 | 49 | 304 | 3.0 | 7.0 | 0.00 | 0.01 | 0.00 | 87 | 1021.8 |
| 20260507111202 | 49 | 266 | 6.0 | 9.0 | 0.00 | 0.01 | 0.00 | 87 | 1021.8 |
| 20260507110702 | 49 | 267 | 4.0 | 9.0 | 0.00 | 0.01 | 0.00 | 87 | 1021.8 |
| 20260507110201 | 49 | 294 | 3.0 | 5.0 | 0.00 | 0.01 | 0.00 | 87 | 1021.9 |
| 20260507105201 | 49 | 284 | 2.0 | 7.0 | 0.00 | 0.01 | 0.00 | 87 | 1021.8 |
| 20260507104701 | 49 | 263 | 2.0 | 7.0 | 0.00 | 0.01 | 0.00 | 87 | 1021.8 |
| 20260507104201 | 49 | 273 | 2.0 | 8.0 | 0.00 | 0.01 | 0.00 | 88 | 1021.7 |
| 20260507103701 | 49 | 263 | 5.0 | 9.0 | 0.00 | 0.01 | 0.00 | 88 | 1021.8 |
| 20260507103201 | 49 | 257 | 0.0 | 9.0 | 0.00 | 0.01 | 0.00 | 88 | 1021.8 |
| 20260507102701 | 49 | 283 | 3.0 | 5.0 | 0.00 | 0.01 | 0.00 | 88 | 1021.8 |
| 20260507102201 | 49 | 252 | 2.0 | 8.0 | 0.00 | 0.01 | 0.00 | 88 | 1021.8 |
| 20260507101701 | 49 | 302 | 3.0 | 9.0 | 0.00 | 0.01 | 0.00 | 88 | 1021.8 |
| 20260507101200 | 49 | 279 | 3.0 | 9.0 | 0.00 | 0.01 | 0.00 | 88 | 1021.8 |
| 20260507100700 | 49 | 294 | 1.0 | 6.0 | 0.00 | 0.01 | 0.00 | 88 | 1021.8 |
| 20260507100200 | 49 | 255 | 2.0 | 7.0 | 0.00 | 0.01 | 0.00 | 88 | 1021.7 |
| 20260507095200 | 49 | 290 | 2.0 | 7.0 | 0.00 | 0.01 | 0.00 | 88 | 1021.8 |
| 20260507094700 | 49 | 262 | 1.0 | 8.0 | 0.00 | 0.01 | 0.00 | 88 | 1021.8 |
| 20260507094200 | 49 | 283 | 2.0 | 11.0 | 0.00 | 0.01 | 0.00 | 88 | 1021.8 |
| 20260507093700 | 49 | 287 | 4.0 | 11.0 | 0.00 | 0.01 | 0.00 | 88 | 1021.8 |
| 20260507092200 | 50 | 239 | 4.0 | 10.0 | 0.00 | 0.01 | 0.00 | 88 | 1021.8 |
| 20260507091200 | 50 | 258 | 4.0 | 8.0 | 0.00 | 0.01 | 0.00 | 88 | 1021.8 |
| 20260507090659 | 50 | 268 | 2.0 | 8.0 | 0.00 | 0.01 | 0.00 | 88 | 1021.8 |
| 20260507090159 | 50 | 288 | 4.0 | 10.0 | 0.00 | 0.01 | 0.00 | 88 | 1021.8 |
| 20260507085659 | 50 | 243 | 2.0 | 10.0 | 0.00 | 0.01 | 0.00 | 88 | 1021.9 |
| 20260507084659 | 50 | 257 | 2.0 | 11.0 | 0.00 | 0.01 | 0.00 | 88 | 1022.0 |
| 20260507083659 | 50 | 252 | 4.0 | 7.0 | 0.00 | 0.01 | 0.00 | 88 | 1022.0 |
| 20260507083159 | 50 | 281 | 1.0 | 7.0 | 0.00 | 0.01 | 0.00 | 89 | 1022.0 |
| 20260507082659 | 50 | 278 | 1.0 | 6.0 | 0.00 | 0.01 | 0.00 | 89 | 1022.0 |
| 20260507082158 | 50 | 289 | 2.0 | 7.0 | 0.00 | 0.01 | 0.00 | 89 | 1021.9 |
| 20260507081659 | 50 | 302 | 2.0 | 7.0 | 0.00 | 0.01 | 0.00 | 90 | 1021.9 |
| 20260507081159 | 50 | 255 | 1.0 | 7.0 | 0.00 | 0.01 | 0.00 | 90 | 1022.0 |
| 20260507080659 | 50 | 244 | 2.0 | 7.0 | 0.00 | 0.01 | 0.00 | 90 | 1021.9 |
| 20260507075658 | 50 | 274 | 2.0 | 7.0 | 0.00 | 0.01 | 0.00 | 90 | 1022.0 |
| 20260507075158 | 51 | 279 | 2.0 | 7.0 | 0.00 | 0.01 | 0.00 | 90 | 1021.9 |
| 20260507074658 | 51 | 297 | 4.0 | 7.0 | 0.00 | 0.01 | 0.00 | 90 | 1021.8 |
| 20260507074157 | 51 | 258 | 3.0 | 7.0 | 0.00 | 0.01 | 0.00 | 89 | 1021.7 |
| 20260507073658 | 51 | 306 | 4.0 | 8.0 | 0.00 | 0.01 | 0.00 | 89 | 1021.7 |
| 20260507073158 | 51 | 256 | 1.0 | 8.0 | 0.00 | 0.01 | 0.00 | 88 | 1021.7 |
| 20260507072657 | 51 | 290 | 4.0 | 6.0 | 0.00 | 0.01 | 0.00 | 88 | 1021.7 |
| 20260507071658 | 51 | 264 | 3.0 | 6.0 | 0.00 | 0.01 | 0.00 | 88 | 1021.6 |
| 20260507071157 | 51 | 280 | 4.0 | 5.0 | 0.00 | 0.01 | 0.00 | 88 | 1021.6 |
| 20260507070659 | 51 | 328 | 0.0 | 5.0 | 0.00 | 0.01 | 0.00 | 89 | 1021.6 |
| 20260507070157 | 51 | 264 | 2.0 | 5.0 | 0.00 | 0.01 | 0.00 | 89 | 1021.6 |
| 20260507065657 | 51 | 262 | 1.0 | 5.0 | 0.00 | 0.01 | 0.01 | 89 | 1021.6 |
| 20260507065157 | 51 | 248 | 2.0 | 5.0 | 0.00 | 0.01 | 0.01 | 89 | 1021.5 |
| 20260507064657 | 51 | 263 | 2.0 | 4.0 | 0.00 | 0.01 | 0.01 | 89 | 1021.5 |
| 20260507064157 | 51 | 290 | 3.0 | 4.0 | 0.00 | 0.01 | 0.01 | 89 | 1021.5 |
| 20260507063656 | 51 | 279 | 2.0 | 4.0 | 0.00 | 0.01 | 0.01 | 89 | 1021.5 |
| 20260507063156 | 51 | 272 | 1.0 | 4.0 | 0.00 | 0.01 | 0.01 | 89 | 1021.4 |
| 20260507062657 | 51 | 267 | 3.0 | 6.0 | 0.00 | 0.01 | 0.01 | 89 | 1021.5 |
| 20260507062156 | 51 | 280 | 2.0 | 6.0 | 0.00 | 0.01 | 0.01 | 89 | 1021.5 |
| 20260507061156 | 51 | 299 | 0.0 | 5.0 | 0.00 | 0.01 | 0.01 | 89 | 1021.5 |
| 20260507060656 | 51 | 283 | 3.0 | 5.0 | 0.00 | 0.01 | 0.01 | 90 | 1021.6 |
| 20260507060156 | 51 | 267 | 1.0 | 6.0 | 0.00 | 0.01 | 0.01 | 90 | 1021.6 |
| 20260507055656 | 51 | 243 | 0.0 | 7.0 | 0.00 | 0.01 | 0.01 | 90 | 1021.6 |
| 20260507055156 | 51 | 269 | 6.0 | 7.0 | 0.00 | 0.01 | 0.01 | 90 | 1021.6 |
| 20260507054656 | 51 | 263 | 0.0 | 6.0 | 0.00 | 0.01 | 0.01 | 90 | 1021.7 |
| 20260507053656 | 51 | 250 | 2.0 | 8.0 | 0.00 | 0.01 | 0.01 | 90 | 1021.6 |
| 20260507053156 | 51 | 290 | 7.0 | 8.0 | 0.00 | 0.01 | 0.01 | 90 | 1021.6 |
| 20260507052656 | 51 | 257 | 3.0 | 6.0 | 0.00 | 0.01 | 0.01 | 90 | 1021.7 |
| 20260507052155 | 51 | 274 | 1.0 | 6.0 | 0.00 | 0.01 | 0.01 | 90 | 1021.6 |
| 20260507051655 | 51 | 249 | 3.0 | 8.0 | 0.00 | 0.01 | 0.01 | 90 | 1021.7 |
| 20260507051155 | 51 | 240 | 4.0 | 9.0 | 0.00 | 0.01 | 0.01 | 90 | 1021.8 |
| 20260507050155 | 51 | 283 | 7.0 | 7.0 | 0.00 | 0.01 | 0.01 | 90 | 1021.7 |
| 20260507045655 | 51 | 256 | 0.0 | 6.0 | 0.00 | 0.01 | 0.01 | 90 | 1021.8 |
| 20260507045156 | 51 | 261 | 2.0 | 6.0 | 0.00 | 0.01 | 0.01 | 90 | 1021.8 |
| 20260507044655 | 51 | 252 | 0.0 | 6.0 | 0.00 | 0.01 | 0.01 | 90 | 1021.7 |
| 20260507044154 | 51 | 297 | 1.0 | 5.0 | 0.00 | 0.01 | 0.01 | 89 | 1021.7 |
| 20260507043654 | 52 | 319 | 2.0 | 5.0 | 0.00 | 0.01 | 0.01 | 89 | 1021.7 |
| 20260507043154 | 52 | 264 | 3.0 | 5.0 | 0.00 | 0.01 | 0.01 | 89 | 1021.7 |
| 20260507042655 | 52 | 254 | 2.0 | 5.0 | 0.00 | 0.01 | 0.01 | 89 | 1021.7 |
| 20260507042155 | 52 | 251 | 0.0 | 6.0 | 0.00 | 0.01 | 0.01 | 88 | 1021.6 |
| 20260507041154 | 53 | 284 | 3.0 | 5.0 | 0.00 | 0.01 | 0.01 | 88 | 1021.5 |
| 20260507040654 | 53 | 262 | 1.0 | 5.0 | 0.00 | 0.01 | 0.01 | 88 | 1021.5 |
| 20260507040154 | 53 | 251 | 2.0 | 8.0 | 0.00 | 0.01 | 0.01 | 87 | 1021.5 |
| 20260507035654 | 53 | 295 | 2.0 | 8.0 | 0.00 | 0.01 | 0.01 | 87 | 1021.6 |
| 20260507035154 | 53 | 244 | 2.0 | 7.0 | 0.00 | 0.01 | 0.01 | 87 | 1021.5 |
| 20260507034654 | 53 | 244 | 1.0 | 6.0 | 0.00 | 0.01 | 0.01 | 87 | 1021.5 |
| 20260507034154 | 53 | 281 | 3.0 | 8.0 | 0.00 | 0.01 | 0.01 | 87 | 1021.5 |
| 20260507033153 | 53 | 236 | 1.0 | 7.0 | 0.00 | 0.01 | 0.01 | 87 | 1021.5 |
| 20260507032654 | 53 | 273 | 3.0 | 7.0 | 0.00 | 0.01 | 0.01 | 87 | 1021.4 |
| 20260507032153 | 53 | 298 | 2.0 | 7.0 | 0.00 | 0.01 | 0.01 | 87 | 1021.3 |
| 20260507031653 | 53 | 270 | 4.0 | 7.0 | 0.00 | 0.01 | 0.01 | 87 | 1021.3 |
| 20260507031153 | 53 | 262 | 0.0 | 5.0 | 0.00 | 0.01 | 0.01 | 87 | 1021.3 |
| 20260507030653 | 53 | 275 | 2.0 | 5.0 | 0.00 | 0.01 | 0.01 | 87 | 1021.3 |
| 20260507030153 | 53 | 241 | 3.0 | 5.0 | 0.00 | 0.01 | 0.01 | 87 | 1021.3 |
| 20260507025653 | 53 | 263 | 1.0 | 5.0 | 0.00 | 0.01 | 0.01 | 87 | 1021.2 |
| 20260507024653 | 53 | 249 | 1.0 | 5.0 | 0.00 | 0.01 | 0.01 | 87 | 1021.3 |
| 20260507024153 | 53 | 240 | 1.0 | 4.0 | 0.00 | 0.01 | 0.01 | 87 | 1021.3 |
| 20260507023653 | 53 | 285 | 3.0 | 5.0 | 0.00 | 0.01 | 0.01 | 87 | 1021.3 |
| 20260507023153 | 53 | 289 | 0.0 | 5.0 | 0.00 | 0.01 | 0.01 | 87 | 1021.2 |
| 20260507022653 | 54 | 253 | 3.0 | 5.0 | 0.00 | 0.01 | 0.01 | 87 | 1021.3 |
| 20260507022152 | 54 | 300 | 3.0 | 4.0 | 0.00 | 0.01 | 0.01 | 87 | 1021.3 |
| 20260507021152 | 54 | 281 | 2.0 | 5.0 | 0.00 | 0.01 | 0.01 | 86 | 1021.4 |
| 20260507020652 | 54 | 314 | 2.0 | 4.0 | 0.00 | 0.01 | 0.01 | 86 | 1021.4 |
| 20260507015652 | 54 | 264 | 0.0 | 6.0 | 0.00 | 0.01 | 0.01 | 86 | 1021.4 |
| 20260507015152 | 54 | 311 | 3.0 | 5.0 | 0.00 | 0.01 | 0.01 | 86 | 1021.4 |
| 20260507013651 | 54 | 268 | 3.0 | 5.0 | 0.00 | 0.01 | 0.01 | 86 | 1021.3 |
| 20260507012152 | 55 | 261 | 4.0 | 5.0 | 0.00 | 0.01 | 0.01 | 85 | 1021.3 |
| 20260507011651 | 55 | 353 | 0.0 | 3.0 | 0.00 | 0.01 | 0.01 | 85 | 1021.3 |
| 20260507011151 | 54 | 110 | 0.0 | 2.0 | 0.00 | 0.01 | 0.01 | 85 | 1021.3 |
| 20260507010651 | 54 | 110 | 2.0 | 2.0 | 0.00 | 0.01 | 0.01 | 85 | 1021.2 |
| 20260507010151 | 54 | 110 | 0.0 | 2.0 | 0.00 | 0.01 | 0.01 | 85 | 1021.3 |
| 20260507005651 | 54 | 110 | 0.0 | 2.0 | 0.00 | 0.01 | 0.01 | 85 | 1021.3 |
| 20260507004650 | 54 | 110 | 1.0 | 2.0 | 0.00 | 0.01 | 0.01 | 85 | 1021.4 |
| 20260507004150 | 54 | 110 | 0.0 | 2.0 | 0.00 | 0.01 | 0.01 | 86 | 1021.4 |
| 20260507003650 | 54 | 110 | 0.0 | 3.0 | 0.00 | 0.01 | 0.01 | 86 | 1021.3 |
| 20260507002650 | 54 | 86 | 0.0 | 4.0 | 0.00 | 0.01 | 0.01 | 86 | 1021.3 |
| 20260507002150 | 54 | 76 | 1.0 | 4.0 | 0.00 | 0.01 | 0.01 | 85 | 1021.3 |
| 20260507001650 | 54 | 89 | 1.0 | 4.0 | 0.00 | 0.01 | 0.01 | 85 | 1021.3 |
| 20260507001150 | 54 | 93 | 2.0 | 3.0 | 0.00 | 0.01 | 0.01 | 85 | 1021.2 |
| 20260507000150 | 54 | 91 | 0.0 | 3.0 | 0.00 | 0.01 | 0.01 | 86 | 1021.3 |
| 20260506235650 | 54 | 94 | 1.0 | 3.0 | 0.00 | 0.01 | 0.01 | 86 | 1021.3 |
| 20260506235149 | 54 | 82 | 2.0 | 3.0 | 0.00 | 0.01 | 0.01 | 86 | 1021.3 |
| 20260506234649 | 54 | 18 | 3.0 | 4.0 | 0.00 | 0.01 | 0.01 | 86 | 1021.3 |
| 20260506234150 | 54 | 100 | 2.0 | 4.0 | 0.00 | 0.01 | 0.01 | 86 | 1021.3 |
| 20260506233649 | 54 | 97 | 4.0 | 4.0 | 0.00 | 0.01 | 0.01 | 86 | 1021.4 |
| 20260506232649 | 54 | 119 | 2.0 | 5.0 | 0.00 | 0.01 | 0.01 | 87 | 1021.3 |
| 20260506231649 | 54 | 98 | 2.0 | 4.0 | 0.00 | 0.01 | 0.01 | 87 | 1021.4 |
| 20260506230149 | 53 | 115 | 3.0 | 4.0 | 0.00 | 0.01 | 0.01 | 87 | 1021.4 |
| 20260506225648 | 53 | 141 | 3.0 | 5.0 | 0.00 | 0.01 | 0.01 | 88 | 1021.4 |
| 20260506225149 | 54 | 101 | 3.0 | 5.0 | 0.00 | 0.01 | 0.01 | 88 | 1021.5 |
| 20260506224648 | 54 | 73 | 3.0 | 5.0 | 0.00 | 0.01 | 0.01 | 88 | 1021.6 |
| 20260506224149 | 54 | 98 | 2.0 | 5.0 | 0.00 | 0.01 | 0.01 | 88 | 1021.5 |
| 20260506223649 | 54 | 75 | 3.0 | 4.0 | 0.00 | 0.01 | 0.01 | 88 | 1021.5 |
| 20260506223149 | 54 | 121 | 2.0 | 4.0 | 0.00 | 0.01 | 0.01 | 87 | 1021.5 |
| 20260506222648 | 54 | 132 | 1.0 | 4.0 | 0.00 | 0.01 | 0.01 | 88 | 1021.5 |
| 20260506222148 | 53 | 126 | 2.0 | 4.0 | 0.00 | 0.01 | 0.01 | 88 | 1021.5 |
| 20260506221648 | 53 | 93 | 2.0 | 4.0 | 0.00 | 0.01 | 0.01 | 89 | 1021.5 |
| 20260506221148 | 53 | 105 | 1.0 | 3.0 | 0.00 | 0.01 | 0.01 | 89 | 1021.5 |
| 20260506220648 | 53 | 129 | 1.0 | 4.0 | 0.00 | 0.01 | 0.01 | 89 | 1021.5 |
| 20260506220148 | 53 | 94 | 1.0 | 5.0 | 0.00 | 0.01 | 0.01 | 89 | 1021.6 |
| 20260506215647 | 53 | 126 | 2.0 | 5.0 | 0.00 | 0.01 | 0.01 | 89 | 1021.5 |
| 20260506215147 | 53 | 125 | 1.0 | 5.0 | 0.00 | 0.01 | 0.01 | 89 | 1021.5 |
| 20260506214648 | 53 | 88 | 2.0 | 5.0 | 0.00 | 0.01 | 0.01 | 89 | 1021.5 |
| 20260506214148 | 53 | 98 | 3.0 | 4.0 | 0.00 | 0.01 | 0.01 | 88 | 1021.6 |
| 20260506213147 | 53 | 108 | 1.0 | 5.0 | 0.00 | 0.01 | 0.01 | 88 | 1021.7 |
| 20260506212647 | 54 | 94 | 2.0 | 5.0 | 0.00 | 0.01 | 0.01 | 86 | 1021.7 |
| 20260506212147 | 55 | 263 | 2.0 | 3.0 | 0.00 | 0.01 | 0.01 | 86 | 1021.7 |
| 20260506211147 | 54 | 248 | 0.0 | 6.0 | 0.00 | 0.01 | 0.01 | 87 | 1021.6 |
| 20260506210647 | 54 | 251 | 0.0 | 6.0 | 0.00 | 0.01 | 0.01 | 87 | 1021.7 |
| 20260506210147 | 54 | 243 | 4.0 | 5.0 | 0.00 | 0.01 | 0.01 | 88 | 1021.6 |
| 20260506205646 | 53 | 241 | 2.0 | 5.0 | 0.00 | 0.01 | 0.01 | 89 | 1021.5 |
| 20260506205146 | 53 | 220 | 1.0 | 5.0 | 0.00 | 0.01 | 0.01 | 90 | 1021.5 |
| 20260506204647 | 53 | 321 | 2.0 | 7.0 | 0.00 | 0.01 | 0.01 | 90 | 1021.6 |
| 20260506204147 | 52 | 252 | 1.0 | 7.0 | 0.00 | 0.01 | 0.01 | 91 | 1021.5 |
| 20260506203646 | 52 | 265 | 0.0 | 6.0 | 0.00 | 0.01 | 0.01 | 91 | 1021.6 |
| 20260506203146 | 52 | 244 | 1.0 | 8.0 | 0.00 | 0.01 | 0.01 | 92 | 1021.7 |
| 20260506202646 | 52 | 270 | 2.0 | 8.0 | 0.00 | 0.01 | 0.01 | 92 | 1021.7 |
| 20260506202146 | 52 | 287 | 3.0 | 7.0 | 0.00 | 0.01 | 0.01 | 93 | 1021.6 |
| 20260506201646 | 52 | 243 | 1.0 | 5.0 | 0.00 | 0.01 | 0.01 | 93 | 1021.6 |
| 20260506200646 | 51 | 255 | 2.0 | 7.0 | 0.00 | 0.01 | 0.01 | 93 | 1021.6 |
| 20260506200146 | 51 | 259 | 3.0 | 7.0 | 0.00 | 0.01 | 0.01 | 93 | 1021.5 |
| 20260506195645 | 51 | 336 | 3.0 | 7.0 | 0.00 | 0.01 | 0.01 | 94 | 1021.5 |
| 20260506195145 | 51 | 302 | 1.0 | 7.0 | 0.00 | 0.01 | 0.01 | 94 | 1021.5 |
| 20260506194646 | 51 | 325 | 2.0 | 7.0 | 0.00 | 0.01 | 0.01 | 94 | 1021.4 |
| 20260506194145 | 51 | 307 | 1.0 | 6.0 | 0.00 | 0.01 | 0.01 | 94 | 1021.4 |
| 20260506193645 | 50 | 279 | 2.0 | 6.0 | 0.00 | 0.01 | 0.01 | 95 | 1021.3 |